Hourly Data Report for August 04, 2019

TORONTO CITY
ONTARIO
Current Station Operator: ECCC - MSC

43°40'00.000" N
79°24'00.000" W
112.50 m
6158355
71508
XTO

Download Data

Hourly Data (August 2019)
Hourly Data Report for August 4, 2019
TIME
LST
Temp Definition
°C
Dew Point Definition
°C
Rel Hum Definition
%
Precip. Amount Definition
mm

Wind Dir Definition
10's deg

Wind Spd Definition
km/h
Visibility Definition
km
Stn Press Definition
kPa
Hmdx Definition


Wind Chill Definition


Weather Definition


00:00 22.4 15.4 65 0.0       100.14 27   LegendNANA
01:00 21.3 15.9 72 0.0       100.15 26   LegendNANA
02:00 21.2 16.5 75 0.0       100.16 26   LegendNANA
03:00 21.4 16.9 75 0.0       100.16 27   LegendNANA
04:00 21.3 16.5 74 0.0       100.18 26   LegendNANA
05:00 20.9 14.4 67 0.0       100.21 25   LegendNANA
06:00 20.3 12.9 63 0.0       100.28     LegendNANA
07:00 20.6 10.0 51 0.0       100.31     LegendNANA
08:00 21.6 10.1 48 0.0       100.34     LegendNANA
09:00 22.7 9.8 44 0.0       100.37     LegendNANA
10:00 23.4 6.9 34 0.0       100.39     LegendNANA
11:00 23.4 5.9 32 0.0       100.38     LegendNANA
12:00 23.7 7.2 35 0.0       100.34     LegendNANA
13:00 24.3 7.6 35 0.0       100.33 25   LegendNANA
14:00 24.4 7.4 34 0.0       100.31 25   LegendNANA
15:00 25.0 9.6 38 0.0       100.26 26   LegendNANA
16:00 24.7 9.7 39 0.0       100.22 26   LegendNANA
17:00 24.4 11.8 45 0.0       100.20 27   LegendNANA
18:00 23.6 11.0 45 0.0       100.18 25   LegendNANA
19:00 23.1 10.9 46 0.0       100.19 25   LegendNANA
20:00 21.6 11.4 52 0.0       100.20     LegendNANA
21:00 21.5 12.0 54 0.0       100.24     LegendNANA
22:00 21.0 10.6 51 0.0       100.23     LegendNANA
23:00 19.7 7.2 44 0.0       100.25     LegendNANA

Notes on Data Quality.

Legend

  • E = Estimated
  • M = Missing
  • NA = Not Available*
  • [empty] = Indicates an unobserved value
Date modified: